N530CA KDKK-KOYM

Flight info

Callsign N530CA
Flight time N/A
Altitude 5000
Route ATAME
Aircraft C152/L-SF/C

Departure

Time 2026-04-22 23:52
Airport Chautauqua County-Dunkirk Airport (KDKK)

Arrival

Time N/A
Airport St Marys Municipal Airport (KOYM)
Time Latitude Longitude Altitude Speed Heading
2026-04-22 23:41 42.49406 -79.27832 662 ft 0 kts 231°
2026-04-22 23:43 42.49406 -79.27833 662 ft 0 kts 230°
2026-04-22 23:43 42.49405 -79.27834 662 ft 0 kts 229°
2026-04-22 23:44 42.49404 -79.27836 662 ft 0 kts 216°
2026-04-22 23:44 42.49396 -79.27838 662 ft 2 kts 178°
2026-04-22 23:44 42.49371 -79.27819 663 ft 5 kts 140°
2026-04-22 23:44 42.49344 -79.27788 664 ft 4 kts 141°
2026-04-22 23:45 42.49319 -79.27760 665 ft 4 kts 141°
2026-04-22 23:45 42.49288 -79.27723 667 ft 6 kts 129°
2026-04-22 23:45 42.49280 -79.27671 668 ft 5 kts 94°
2026-04-22 23:45 42.49276 -79.27608 669 ft 7 kts 93°
2026-04-22 23:46 42.49273 -79.27548 670 ft 5 kts 95°
2026-04-22 23:46 42.49277 -79.27507 671 ft 4 kts 48°
2026-04-22 23:46 42.49306 -79.27464 671 ft 8 kts 48°
2026-04-22 23:46 42.49352 -79.27394 672 ft 10 kts 49°
2026-04-22 23:47 42.49398 -79.27319 672 ft 11 kts 51°
2026-04-22 23:47 42.49452 -79.27236 671 ft 11 kts 51°
2026-04-22 23:47 42.49506 -79.27150 670 ft 12 kts 51°
2026-04-22 23:47 42.49559 -79.27065 669 ft 11 kts 48°
2026-04-22 23:48 42.49612 -79.26984 668 ft 12 kts 49°
2026-04-22 23:48 42.49672 -79.26890 664 ft 14 kts 51°
2026-04-22 23:48 42.49732 -79.26794 661 ft 11 kts 49°
2026-04-22 23:48 42.49789 -79.26704 659 ft 13 kts 45°
2026-04-22 23:49 42.49851 -79.26605 656 ft 14 kts 49°
2026-04-22 23:49 42.49920 -79.26500 654 ft 14 kts 50°
2026-04-22 23:49 42.49983 -79.26398 654 ft 13 kts 50°
2026-04-22 23:49 42.50042 -79.26299 654 ft 13 kts 71°
2026-04-22 23:50 42.50045 -79.26217 654 ft 4 kts 90°
2026-04-22 23:50 42.50044 -79.26178 654 ft 4 kts 112°
2026-04-22 23:50 42.50020 -79.26148 654 ft 4 kts 157°
2026-04-22 23:50 42.49993 -79.26157 654 ft 1 kts 229°
2026-04-22 23:51 42.49927 -79.26259 654 ft 41 kts 230°
2026-04-22 23:51 42.49657 -79.26695 718 ft 70 kts 230°
2026-04-22 23:51 42.49328 -79.27215 874 ft 76 kts 230°
2026-04-22 23:51 42.48962 -79.27766 997 ft 84 kts 230°
2026-04-22 23:52 42.48557 -79.28372 1101 ft 89 kts 219°
2026-04-22 23:52 42.47925 -79.28329 1242 ft 105 kts 148°
2026-04-22 23:52 42.47397 -79.27719 1487 ft 98 kts 139°
2026-04-22 23:52 42.46921 -79.27023 1647 ft 104 kts 136°
2026-04-22 23:53 42.46418 -79.26297 1800 ft 107 kts 139°
2026-04-22 23:53 42.45879 -79.25643 2014 ft 101 kts 146°
2026-04-22 23:53 42.45311 -79.25137 2238 ft 98 kts 153°
2026-04-22 23:53 42.44686 -79.24697 2375 ft 105 kts 156°
2026-04-22 23:54 42.44051 -79.24193 2574 ft 104 kts 148°
2026-04-22 23:54 42.43448 -79.23607 2694 ft 113 kts 143°
2026-04-22 23:54 42.42826 -79.22960 2861 ft 112 kts 143°
2026-04-22 23:54 42.42203 -79.22302 2998 ft 113 kts 142°
2026-04-22 23:55 42.41571 -79.21663 3111 ft 115 kts 144°
2026-04-22 23:55 42.40918 -79.21051 3250 ft 115 kts 145°
2026-04-22 23:55 42.40257 -79.20422 3376 ft 117 kts 144°
2026-04-22 23:55 42.39595 -79.19767 3497 ft 120 kts 142°
2026-04-22 23:56 42.38943 -79.19030 3619 ft 118 kts 135°
2026-04-22 23:56 42.38350 -79.18248 3716 ft 120 kts 133°
2026-04-22 23:56 42.37761 -79.17422 3771 ft 125 kts 131°
2026-04-22 23:56 42.37173 -79.16554 3862 ft 125 kts 138°
2026-04-22 23:57 42.36485 -79.15813 3952 ft 125 kts 144°
2026-04-22 23:57 42.35802 -79.15102 4053 ft 125 kts 142°
2026-04-22 23:57 42.35132 -79.14342 4168 ft 124 kts 136°
2026-04-22 23:57 42.34535 -79.13519 4291 ft 123 kts 131°
2026-04-22 23:58 42.33997 -79.12637 4428 ft 121 kts 128°
2026-04-22 23:58 42.33367 -79.11852 4511 ft 124 kts 144°
2026-04-22 23:58 42.32651 -79.11113 4522 ft 131 kts 144°
2026-04-22 23:58 42.31954 -79.10392 4489 ft 122 kts 144°
2026-04-22 23:59 42.31314 -79.09701 4479 ft 114 kts 142°
2026-04-22 23:59 42.30721 -79.09004 4464 ft 112 kts 136°
2026-04-22 23:59 42.30200 -79.08212 4454 ft 110 kts 129°
2026-04-22 23:59 42.29630 -79.07503 4410 ft 113 kts 150°
2026-04-23 00:00 42.28330 -79.06516 4511 ft 107 kts 150°
2026-04-23 00:00 42.27699 -79.05954 4528 ft 109 kts 144°
2026-04-23 00:00 42.27063 -79.05375 4525 ft 110 kts 152°
2026-04-23 00:01 42.26385 -79.04855 4539 ft 109 kts 154°